• In Belarus
  • List of Countries
  • For 7 days
  • Water Temperature
  • Satellite Maps
  • Weather Map
  • Weather Widgets
  • user-avatar
    Login

    Hourly Weather Annaba

    Today, 27 July, Thursday

    Time Temperature Precipitation Wind Pressure Humidity
    00:00 +25°C° 0 mm 2 mps 759 mmHg 71%
    01:00 +24°C° 0 mm 2 mps 760 mmHg 75%
    02:00 +24°C° 0 mm 2 mps 759 mmHg 75%
    03:00 +24°C° 0 mm 2 mps 759 mmHg 76%
    04:00 +24°C° 0 mm 2 mps 759 mmHg 76%
    05:00 +24°C° 0 mm 2 mps 759 mmHg 73%
    06:00 +25°C° 0 mm 2 mps 760 mmHg 69%
    07:00 +26°C° 0 mm 2 mps 760 mmHg 65%
    08:00 +27°C° 0 mm 2 mps 760 mmHg 59%
    09:00 +29°C° 0 mm 2 mps 760 mmHg 52%
    10:00 +30°C° 0 mm 3 mps 760 mmHg 46%
    11:00 +31°C° 0 mm 3 mps 760 mmHg 42%
    12:00 +34°C° 0 mm 4 mps 760 mmHg 39%
    13:00 +34°C° 0 mm 4 mps 760 mmHg 38%
    14:00 +34°C° 0 mm 4 mps 760 mmHg 38%
    15:00 +34°C° 0 mm 4 mps 760 mmHg 39%
    16:00 +35°C° 0 mm 4 mps 760 mmHg 39%
    17:00 +33°C° 0 mm 4 mps 760 mmHg 42%
    18:00 +31°C° 0 mm 3 mps 760 mmHg 46%
    19:00 +30°C° 0 mm 2 mps 760 mmHg 49%
    20:00 +29°C° 0 mm 2 mps 760 mmHg 54%
    21:00 +28°C° 0 mm 1 mps 760 mmHg 59%
    22:00 +27°C° 0 mm 1 mps 760 mmHg 64%
    23:00 +27°C° 0 mm 1 mps 760 mmHg 64%

    Tomorrow, 28 July, Friday

    Time Temperature Precipitation Wind Pressure Humidity
    00:00 +26°C° 0 mm 1 mps 760 mmHg 63%
    01:00 +26°C° 0 mm 1 mps 760 mmHg 62%
    02:00 +26°C° 0 mm 1 mps 760 mmHg 61%
    03:00 +26°C° 0 mm 1 mps 760 mmHg 59%
    04:00 +26°C° 0 mm 1 mps 760 mmHg 58%
    05:00 +27°C° 0 mm 1 mps 760 mmHg 54%
    06:00 +28°C° 0 mm 1 mps 760 mmHg 51%
    07:00 +29°C° 0 mm 1 mps 760 mmHg 47%
    08:00 +31°C° 0 mm 1 mps 760 mmHg 40%
    09:00 +34°C° 0 mm 1 mps 760 mmHg 33%
    10:00 +36°C° 0 mm 1 mps 760 mmHg 26%
    11:00 +38°C° 0 mm 2 mps 760 mmHg 25%
    12:00 +39°C° 0 mm 3 mps 760 mmHg 24%
    13:00 +40°C° 0 mm 4 mps 760 mmHg 23%
    14:00 +40°C° 0 mm 4 mps 760 mmHg 24%
    15:00 +40°C° 0 mm 4 mps 760 mmHg 25%
    16:00 +40°C° 0 mm 4 mps 759 mmHg 25%
    17:00 +38°C° 0 mm 4 mps 760 mmHg 28%
    18:00 +37°C° 0 mm 3 mps 760 mmHg 31%
    19:00 +35°C° 0 mm 3 mps 760 mmHg 33%
    20:00 +34°C° 0 mm 3 mps 760 mmHg 37%
    21:00 +31°C° 0 mm 2 mps 760 mmHg 40%
    22:00 +30°C° 0 mm 2 mps 761 mmHg 43%
    23:00 +29°C° 0 mm 2 mps 761 mmHg 44%

    Day after tomorrow, 29 July, Saturday

    Time Temperature Precipitation Wind Pressure Humidity
    00:00 +29°C° 0 mm 2 mps 761 mmHg 45%
    01:00 +29°C° 0 mm 2 mps 760 mmHg 45%
    02:00 +29°C° 0 mm 2 mps 760 mmHg 45%
    03:00 +29°C° 0 mm 2 mps 760 mmHg 44%
    04:00 +28°C° 0 mm 1 mps 760 mmHg 43%
    05:00 +29°C° 0 mm 2 mps 760 mmHg 41%
    06:00 +30°C° 0 mm 2 mps 760 mmHg 39%
    07:00 +31°C° 0 mm 2 mps 760 mmHg 37%
    08:00 +35°C° 0 mm 2 mps 760 mmHg 33%
    09:00 +37°C° 0 mm 2 mps 760 mmHg 28%
    10:00 +40°C° 0 mm 3 mps 760 mmHg 24%
    11:00 +42°C° 0 mm 3 mps 760 mmHg 22%
    12:00 +43°C° 0 mm 4 mps 760 mmHg 21%
    13:00 +44°C° 0 mm 4 mps 760 mmHg 20%
    14:00 +45°C° 0 mm 5 mps 759 mmHg 21%
    15:00 +45°C° 0 mm 5 mps 759 mmHg 21%
    16:00 +45°C° 0 mm 6 mps 759 mmHg 22%
    17:00 +42°C° 0 mm 6 mps 759 mmHg 25%
    18:00 +41°C° 0 mm 5 mps 759 mmHg 27%
    19:00 +39°C° 0 mm 5 mps 759 mmHg 30%
    20:00 +37°C° 0 mm 4 mps 759 mmHg 34%
    21:00 +35°C° 0 mm 4 mps 759 mmHg 37%
    22:00 +34°C° 0 mm 3 mps 760 mmHg 40%
    23:00 +34°C° 0 mm 3 mps 760 mmHg 40%

    30 July, Sunday

    Time Temperature Precipitation Wind Pressure Humidity
    00:00 +33°C° 0 mm 3 mps 759 mmHg 41%
    01:00 +32°C° 0 mm 2 mps 759 mmHg 41%
    02:00 +32°C° 0 mm 2 mps 759 mmHg 41%
    03:00 +32°C° 0 mm 2 mps 759 mmHg 41%
    04:00 +31°C° 0 mm 2 mps 758 mmHg 41%
    05:00 +32°C° 0 mm 2 mps 758 mmHg 39%
    06:00 +34°C° 0 mm 2 mps 759 mmHg 37%
    07:00 +35°C° 0 mm 2 mps 759 mmHg 36%
    08:00 +37°C° 0 mm 2 mps 759 mmHg 31%
    09:00 +40°C° 0 mm 2 mps 759 mmHg 27%
    10:00 +42°C° 0 mm 2 mps 759 mmHg 23%
    11:00 +44°C° 0 mm 3 mps 759 mmHg 22%
    12:00 +45°C° 0 mm 4 mps 758 mmHg 21%
    13:00 +47°C° 0 mm 4 mps 758 mmHg 20%
    14:00 +46°C° 0 mm 5 mps 758 mmHg 21%
    15:00 +46°C° 0 mm 5 mps 757 mmHg 22%
    16:00 +46°C° 0 mm 5 mps 757 mmHg 24%
    17:00 +43°C° 0 mm 4 mps 757 mmHg 27%
    18:00 +40°C° 0 mm 3 mps 757 mmHg 29%
    19:00 +39°C° 0 mm 3 mps 757 mmHg 32%
    20:00 +37°C° 0 mm 2 mps 758 mmHg 35%
    21:00 +36°C° 0 mm 2 mps 758 mmHg 38%
    22:00 +34°C° 0 mm 2 mps 759 mmHg 40%
    23:00 +34°C° 0 mm 2 mps 759 mmHg 40%

    31 July, Monday

    Time Temperature Precipitation Wind Pressure Humidity
    00:00 +34°C° 0 mm 2 mps 758 mmHg 40%
    01:00 +34°C° 0 mm 2 mps 758 mmHg 40%
    02:00 +32°C° 0 mm 1 mps 758 mmHg 40%
    03:00 +32°C° 0 mm 1 mps 758 mmHg 41%
    04:00 +32°C° 0 mm 1 mps 757 mmHg 41%
    05:00 +32°C° 0 mm 1 mps 757 mmHg 39%
    06:00 +34°C° 0 mm 2 mps 757 mmHg 38%
    07:00 +35°C° 0 mm 2 mps 758 mmHg 36%
    08:00 +37°C° 0 mm 2 mps 758 mmHg 31%
    09:00 +40°C° 0 mm 3 mps 758 mmHg 26%
    10:00 +44°C° 0 mm 3 mps 758 mmHg 22%
    11:00 +45°C° 0 mm 3 mps 757 mmHg 20%
    12:00 +47°C° 0 mm 4 mps 757 mmHg 19%
    13:00 +48°C° 0 mm 5 mps 756 mmHg 18%
    14:00 +48°C° 0 mm 5 mps 756 mmHg 18%
    15:00 +48°C° 0 mm 6 mps 756 mmHg 19%
    16:00 +48°C° 0 mm 6 mps 756 mmHg 19%
    17:00 +46°C° 0 mm 6 mps 756 mmHg 21%
    18:00 +45°C° 0 mm 5 mps 756 mmHg 23%
    19:00 +42°C° 0 mm 5 mps 756 mmHg 25%
    20:00 +41°C° 0 mm 4 mps 756 mmHg 28%
    21:00 +38°C° 0 mm 4 mps 757 mmHg 31%
    22:00 +37°C° 0 mm 3 mps 757 mmHg 33%
    23:00 +36°C° 0 mm 3 mps 757 mmHg 33%

    1 August, Tuesday

    Time Temperature Precipitation Wind Pressure Humidity
    00:00 +36°C° 0 mm 3 mps 757 mmHg 33%
    01:00 +36°C° 0 mm 3 mps 757 mmHg 33%
    02:00 +35°C° 0 mm 2 mps 757 mmHg 34%
    03:00 +35°C° 0 mm 2 mps 757 mmHg 34%
    04:00 +34°C° 0 mm 2 mps 757 mmHg 34%
    05:00 +35°C° 0 mm 2 mps 757 mmHg 33%
    06:00 +36°C° 0 mm 2 mps 757 mmHg 33%
    07:00 +36°C° 0 mm 2 mps 758 mmHg 32%
    08:00 +38°C° 0 mm 2 mps 758 mmHg 28%
    09:00 +41°C° 0 mm 2 mps 758 mmHg 25%
    10:00 +43°C° 0 mm 2 mps 758 mmHg 21%
    11:00 +45°C° 0 mm 3 mps 758 mmHg 20%
    12:00 +47°C° 0 mm 4 mps 758 mmHg 19%
    13:00 +47°C° 0 mm 4 mps 758 mmHg 19%
    14:00 +47°C° 0 mm 4 mps 758 mmHg 19%
    15:00 +47°C° 0 mm 5 mps 758 mmHg 20%
    16:00 +46°C° 0 mm 5 mps 758 mmHg 20%
    17:00 +44°C° 0 mm 4 mps 758 mmHg 23%
    18:00 +42°C° 0 mm 4 mps 758 mmHg 25%
    19:00 +40°C° 0 mm 3 mps 759 mmHg 28%
    20:00 +38°C° 0 mm 3 mps 759 mmHg 30%
    21:00 +37°C° 0 mm 2 mps 759 mmHg 33%
    22:00 +35°C° 0 mm 2 mps 760 mmHg 36%
    23:00 +35°C° 0 mm 2 mps 760 mmHg 35%
    Show more